TimeCDT,TemperatureF,Dew PointF,Humidity,Sea Level PressureIn,VisibilityMPH,Wind Direction,Wind SpeedMPH,Gust SpeedMPH,PrecipitationIn,Events,Conditions,WindDirDegrees,DateUTC
12:52 AM,37.0,27.0,67,30.02,10.0,WNW,9.2,-,N/A,,Mostly Cloudy,300,2013-04-19 05:52:00
1:52 AM,35.1,26.1,70,30.02,10.0,WNW,12.7,21.9,N/A,,Partly Cloudy,300,2013-04-19 06:52:00
2:52 AM,34.0,26.1,73,30.01,10.0,WNW,11.5,-,N/A,,Mostly Cloudy,300,2013-04-19 07:52:00
3:52 AM,34.0,26.1,73,30.02,10.0,WNW,12.7,-,N/A,,Clear,290,2013-04-19 08:52:00
4:52 AM,32.0,26.1,79,30.02,10.0,West,11.5,-,N/A,,Scattered Clouds,280,2013-04-19 09:52:00
5:52 AM,32.0,26.1,79,30.03,10.0,West,11.5,-,N/A,,Clear,280,2013-04-19 10:52:00
6:52 AM,32.0,26.1,79,30.06,10.0,WNW,10.4,-,N/A,,Clear,290,2013-04-19 11:52:00
7:52 AM,34.0,26.1,73,30.09,10.0,WNW,11.5,-,N/A,,Clear,290,2013-04-19 12:52:00
8:52 AM,37.9,27.0,65,30.09,10.0,WNW,18.4,23.0,N/A,,Clear,290,2013-04-19 13:52:00
9:52 AM,41.0,26.1,55,30.09,10.0,WNW,16.1,21.9,N/A,,Clear,290,2013-04-19 14:52:00
10:52 AM,45.0,25.0,46,30.09,10.0,West,17.3,25.3,N/A,,Clear,280,2013-04-19 15:52:00
11:52 AM,48.0,26.1,42,30.09,10.0,WNW,19.6,25.3,N/A,,Clear,290,2013-04-19 16:52:00
12:52 PM,50.0,25.0,38,30.07,10.0,West,13.8,23.0,N/A,,Clear,270,2013-04-19 17:52:00
1:06 PM,50.0,23.0,35,30.06,10.0,West,13.8,25.3,N/A,,Clear,280,2013-04-19 18:06:00
1:52 PM,53.1,23.0,31,30.05,10.0,West,16.1,24.2,N/A,,Partly Cloudy,270,2013-04-19 18:52:00
2:52 PM,54.0,25.0,33,30.05,10.0,WNW,18.4,25.3,N/A,,Overcast,290,2013-04-19 19:52:00
3:52 PM,55.9,27.0,33,30.04,10.0,WNW,20.7,31.1,N/A,,Overcast,290,2013-04-19 20:52:00
4:52 PM,55.9,28.0,34,30.02,10.0,WNW,15.0,21.9,N/A,,Mostly Cloudy,300,2013-04-19 21:52:00
5:52 PM,57.9,30.0,35,30.02,10.0,West,13.8,23.0,N/A,,Mostly Cloudy,280,2013-04-19 22:52:00
6:52 PM,57.0,30.9,37,30.03,10.0,NNW,11.5,21.9,N/A,,Partly Cloudy,330,2013-04-19 23:52:00
7:52 PM,53.1,28.0,38,30.06,10.0,NW,9.2,19.6,N/A,,Clear,320,2013-04-20 00:52:00
8:52 PM,48.9,28.0,44,30.07,10.0,North,4.6,-,N/A,,Clear,350,2013-04-20 01:52:00
9:52 PM,43.0,30.0,60,30.10,10.0,Calm,Calm,-,N/A,,Clear,0,2013-04-20 02:52:00
10:52 PM,41.0,30.9,67,30.09,10.0,North,3.5,-,N/A,,Clear,360,2013-04-20 03:52:00
11:52 PM,39.0,30.0,70,30.10,10.0,Calm,Calm,-,N/A,,Clear,0,2013-04-20 04:52:00